| time (UTC) | temp C | wind direction | speed KPH | gust KPH | rain 1hr cm | rain 24hr cm | rain mn cm | humidity % | barometer mb |
| 20260504223841 | 19 | 119 | 4.8 | 16.1 | 0.00 | 0.00 | 0.00 | 12 | 1011.8 |
| 20260504223335 | 19 | 197 | 6.4 | 29.0 | 0.00 | 0.00 | 0.00 | 15 | 1011.7 |
| 20260504222829 | 19 | 311 | 8.0 | 29.0 | 0.00 | 0.00 | 0.00 | 11 | 1011.8 |
| 20260504221818 | 19 | 139 | 6.4 | 20.9 | 0.00 | 0.00 | 0.00 | 13 | 1011.8 |
| 20260504221314 | 18 | 283 | 11.3 | 32.2 | 0.00 | 0.00 | 0.00 | 13 | 1011.8 |
| 20260504220806 | 18 | 158 | 11.3 | 32.2 | 0.00 | 0.00 | 0.00 | 12 | 1012.1 |
| 20260504220259 | 19 | 227 | 9.7 | 25.7 | 0.00 | 0.00 | 0.00 | 12 | 1011.9 |
| 20260504215754 | 19 | 150 | 9.7 | 22.5 | 0.00 | 0.00 | 0.00 | 12 | 1011.9 |
| 20260504215247 | 19 | 190 | 8.0 | 22.5 | 0.00 | 0.00 | 0.00 | 11 | 1012.1 |
| 20260504214744 | 19 | 208 | 9.7 | 32.2 | 0.00 | 0.00 | 0.00 | 12 | 1012.1 |
| 20260504214235 | 18 | 146 | 12.9 | 37.0 | 0.00 | 0.00 | 0.00 | 13 | 1012.0 |
| 20260504213730 | 18 | 106 | 12.9 | 37.0 | 0.00 | 0.00 | 0.00 | 13 | 1012.1 |
| 20260504213223 | 19 | 98 | 11.3 | 22.5 | 0.00 | 0.00 | 0.00 | 14 | 1012.1 |
| 20260504212718 | 18 | 219 | 11.3 | 30.6 | 0.00 | 0.00 | 0.00 | 15 | 1012.3 |
| 20260504211211 | 19 | 197 | 4.8 | 16.1 | 0.00 | 0.00 | 0.00 | 20 | 1012.5 |
| 20260504210711 | 18 | 198 | 8.0 | 37.0 | 0.00 | 0.00 | 0.00 | 20 | 1012.5 |
| 20260504210216 | 18 | 94 | 11.3 | 37.0 | 0.00 | 0.00 | 0.00 | 21 | 1012.7 |
| 20260504205710 | 18 | 208 | 9.7 | 30.6 | 0.00 | 0.00 | 0.00 | 22 | 1012.7 |
| 20260504205207 | 18 | 151 | 9.7 | 30.6 | 0.00 | 0.00 | 0.00 | 23 | 1012.7 |
| 20260504204205 | 18 | 250 | 9.7 | 22.5 | 0.00 | 0.00 | 0.00 | 25 | 1012.5 |
| 20260504203705 | 18 | 173 | 8.0 | 22.5 | 0.00 | 0.00 | 0.00 | 25 | 1012.5 |
| 20260504203208 | 18 | 82 | 8.0 | 24.1 | 0.00 | 0.00 | 0.00 | 25 | 1012.6 |
| 20260504202708 | 18 | 145 | 11.3 | 29.0 | 0.00 | 0.00 | 0.00 | 26 | 1012.3 |
| 20260504202206 | 17 | 196 | 12.9 | 40.2 | 0.00 | 0.00 | 0.00 | 28 | 1012.6 |
| 20260504201706 | 17 | 155 | 9.7 | 40.2 | 0.00 | 0.00 | 0.00 | 29 | 1012.6 |
| 20260504201210 | 17 | 101 | 8.0 | 22.5 | 0.00 | 0.00 | 0.00 | 29 | 1012.6 |
| 20260504200205 | 17 | 82 | 11.3 | 29.0 | 0.00 | 0.00 | 0.00 | 30 | 1012.7 |
| 20260504195707 | 17 | 125 | 11.3 | 37.0 | 0.00 | 0.00 | 0.00 | 30 | 1012.7 |
| 20260504195200 | 17 | 217 | 12.9 | 37.0 | 0.00 | 0.00 | 0.00 | 31 | 1012.9 |
| 20260504194148 | 17 | 233 | 9.7 | 27.4 | 0.00 | 0.00 | 0.00 | 32 | 1012.8 |
| 20260504191127 | 16 | 150 | 14.5 | 43.5 | 0.00 | 0.00 | 0.00 | 35 | 1013.3 |
| 20260504190626 | 16 | 229 | 11.3 | 37.0 | 0.00 | 0.00 | 0.00 | 35 | 1013.5 |
| 20260504190127 | 16 | 183 | 9.7 | 35.4 | 0.00 | 0.00 | 0.00 | 36 | 1013.6 |
| 20260504185127 | 16 | 135 | 9.7 | 25.7 | 0.00 | 0.00 | 0.00 | 37 | 1013.0 |
| 20260504184627 | 16 | 116 | 9.7 | 29.0 | 0.00 | 0.00 | 0.00 | 36 | 1013.3 |
| 20260504184129 | 16 | 278 | 11.3 | 33.8 | 0.00 | 0.00 | 0.00 | 36 | 1013.4 |
| 20260504183130 | 16 | 248 | 8.0 | 20.9 | 0.00 | 0.00 | 0.00 | 38 | 1013.4 |
| 20260504182627 | 16 | 148 | 6.4 | 19.3 | 0.00 | 0.00 | 0.00 | 37 | 1013.2 |
| 20260504182126 | 16 | 293 | 9.7 | 35.4 | 0.00 | 0.00 | 0.00 | 39 | 1013.4 |
| 20260504181628 | 16 | 35 | 14.5 | 35.4 | 0.00 | 0.00 | 0.00 | 40 | 1013.5 |
| 20260504181128 | 16 | 283 | 12.9 | 33.8 | 0.00 | 0.00 | 0.00 | 40 | 1013.4 |
| 20260504180627 | 16 | 174 | 11.3 | 41.8 | 0.00 | 0.00 | 0.00 | 40 | 1013.6 |
| 20260504180127 | 15 | 189 | 11.3 | 41.8 | 0.00 | 0.00 | 0.00 | 41 | 1013.3 |
| 20260504175628 | 15 | 137 | 12.9 | 40.2 | 0.00 | 0.00 | 0.00 | 41 | 1013.5 |
| 20260504175125 | 15 | 201 | 16.1 | 33.8 | 0.00 | 0.00 | 0.00 | 42 | 1013.3 |
| 20260504174625 | 15 | 172 | 16.1 | 54.7 | 0.00 | 0.00 | 0.00 | 43 | 1013.5 |
| 20260504174124 | 15 | 122 | 12.9 | 54.7 | 0.00 | 0.00 | 0.00 | 43 | 1013.3 |
| 20260504173624 | 15 | 185 | 12.9 | 29.0 | 0.00 | 0.00 | 0.00 | 42 | 1013.2 |
| 20260504173126 | 15 | 162 | 11.3 | 29.0 | 0.00 | 0.00 | 0.00 | 42 | 1013.3 |
| 20260504172624 | 15 | 164 | 11.3 | 25.7 | 0.00 | 0.00 | 0.00 | 42 | 1013.3 |
| 20260504172124 | 15 | 220 | 12.9 | 29.0 | 0.00 | 0.00 | 0.00 | 43 | 1013.0 |
| 20260504171625 | 15 | 170 | 12.9 | 29.0 | 0.00 | 0.00 | 0.00 | 43 | 1013.3 |
| 20260504171124 | 15 | 150 | 11.3 | 37.0 | 0.00 | 0.00 | 0.00 | 43 | 1012.9 |
| 20260504170624 | 15 | 234 | 12.9 | 37.0 | 0.00 | 0.00 | 0.00 | 42 | 1012.9 |
| 20260504170125 | 15 | 170 | 11.3 | 35.4 | 0.00 | 0.00 | 0.00 | 42 | 1013.2 |
| 20260504160127 | 15 | 134 | 8.0 | 29.0 | 0.00 | 0.00 | 0.00 | 46 | 1013.0 |
| 20260504150616 | 14 | 79 | 8.0 | 27.4 | 0.00 | 0.00 | 0.00 | 44 | 1013.2 |
| 20260504150109 | 14 | 153 | 8.0 | 27.4 | 0.00 | 0.00 | 0.00 | 44 | 1013.2 |
| 20260504141104 | 14 | 184 | 6.4 | 19.3 | 0.00 | 0.00 | 0.00 | 42 | 1012.7 |
| 20260504140606 | 13 | 175 | 6.4 | 24.1 | 0.00 | 0.00 | 0.00 | 41 | 1012.8 |
| 20260504140105 | 13 | 139 | 4.8 | 24.1 | 0.00 | 0.00 | 0.00 | 41 | 1012.6 |
| 20260504081935 | 17 | 183 | 3.2 | 14.5 | 0.00 | 0.00 | 0.00 | 29 | 1011.6 |
| 20260504081429 | 17 | 197 | 3.2 | 11.3 | 0.00 | 0.00 | 0.00 | 29 | 1011.6 |
| 20260504080419 | 17 | 195 | 3.2 | 12.9 | 0.00 | 0.00 | 0.00 | 28 | 1012.1 |
| 20260504070406 | 18 | 193 | 3.2 | 11.3 | 0.00 | 0.00 | 0.00 | 24 | 1011.9 |
| 20260504050357 | 20 | 207 | 11.3 | 22.5 | 0.00 | 0.00 | 0.00 | 18 | 1011.9 |
| 20260504045855 | 20 | 188 | 11.3 | 22.5 | 0.00 | 0.00 | 0.00 | 18 | 1011.9 |
| 20260504045414 | 20 | 160 | 9.7 | 22.5 | 0.00 | 0.00 | 0.00 | 18 | 1012.0 |
| 20260504044859 | 20 | 277 | 9.7 | 17.7 | 0.00 | 0.00 | 0.00 | 18 | 1011.8 |
| 20260504044359 | 20 | 127 | 8.0 | 22.5 | 0.00 | 0.00 | 0.00 | 18 | 1011.9 |
| 20260504043859 | 20 | 226 | 8.0 | 22.5 | 0.00 | 0.00 | 0.00 | 18 | 1012.0 |
| 20260504043348 | 20 | 143 | 8.0 | 20.9 | 0.00 | 0.00 | 0.00 | 18 | 1011.9 |
| 20260504042847 | 21 | 162 | 9.7 | 32.2 | 0.00 | 0.00 | 0.00 | 18 | 1012.1 |
| 20260504042346 | 21 | 166 | 9.7 | 32.2 | 0.00 | 0.00 | 0.00 | 18 | 1012.0 |
| 20260504041336 | 21 | 229 | 6.4 | 19.3 | 0.00 | 0.00 | 0.00 | 18 | 1011.8 |
| 20260504040833 | 21 | 177 | 6.4 | 19.3 | 0.00 | 0.00 | 0.00 | 18 | 1011.7 |
| 20260504035837 | 21 | 177 | 8.0 | 19.3 | 0.00 | 0.00 | 0.00 | 18 | 1011.6 |
| 20260504035337 | 21 | 129 | 8.0 | 19.3 | 0.00 | 0.00 | 0.00 | 18 | 1011.6 |
| 20260504034831 | 21 | 292 | 8.0 | 24.1 | 0.00 | 0.00 | 0.00 | 17 | 1011.5 |
| 20260504033829 | 21 | 160 | 4.8 | 17.7 | 0.00 | 0.00 | 0.00 | 17 | 1011.3 |
| 20260504033327 | 21 | 197 | 6.4 | 12.9 | 0.00 | 0.00 | 0.00 | 17 | 1011.1 |
| 20260504032332 | 21 | 218 | 6.4 | 16.1 | 0.00 | 0.00 | 0.00 | 17 | 1011.1 |
| 20260504031829 | 21 | 193 | 8.0 | 20.9 | 0.00 | 0.00 | 0.00 | 17 | 1011.1 |
| 20260504031328 | 21 | 256 | 8.0 | 27.4 | 0.00 | 0.00 | 0.00 | 17 | 1011.1 |
| 20260504030828 | 21 | 194 | 9.7 | 27.4 | 0.00 | 0.00 | 0.00 | 16 | 1011.0 |
| 20260504030328 | 21 | 158 | 11.3 | 27.4 | 0.00 | 0.00 | 0.00 | 16 | 1010.9 |
| 20260504025829 | 21 | 174 | 12.9 | 33.8 | 0.00 | 0.00 | 0.00 | 16 | 1010.9 |
| 20260504024822 | 21 | 172 | 8.0 | 22.5 | 0.00 | 0.00 | 0.00 | 14 | 1010.9 |
| 20260504024316 | 21 | 202 | 6.4 | 22.5 | 0.00 | 0.00 | 0.00 | 14 | 1010.9 |
| 20260504023810 | 21 | 156 | 4.8 | 16.1 | 0.00 | 0.00 | 0.00 | 14 | 1010.8 |
| 20260504023304 | 22 | 251 | 6.4 | 17.7 | 0.00 | 0.00 | 0.00 | 14 | 1010.8 |
| 20260504022252 | 22 | 221 | 11.3 | 27.4 | 0.00 | 0.00 | 0.00 | 13 | 1010.7 |
| 20260504021747 | 22 | 300 | 9.7 | 22.5 | 0.00 | 0.00 | 0.00 | 12 | 1010.7 |
| 20260504021240 | 22 | 226 | 8.0 | 22.5 | 0.00 | 0.00 | 0.00 | 12 | 1010.5 |
| 20260504020735 | 23 | 243 | 8.0 | 24.1 | 0.00 | 0.00 | 0.00 | 12 | 1010.5 |
| 20260504020229 | 23 | 161 | 11.3 | 25.7 | 0.00 | 0.00 | 0.00 | 11 | 1010.5 |
| 20260504015722 | 23 | 174 | 11.3 | 25.7 | 0.00 | 0.00 | 0.00 | 11 | 1010.5 |
| 20260504014205 | 25 | 170 | 9.7 | 30.6 | 0.00 | 0.00 | 0.00 | 9 | 1010.5 |
| 20260504013152 | 25 | 154 | 8.0 | 25.7 | 0.00 | 0.00 | 0.00 | 8 | 1010.5 |
| 20260504012647 | 25 | 228 | 8.0 | 17.7 | 0.00 | 0.00 | 0.00 | 8 | 1010.5 |
| 20260504012141 | 25 | 176 | 8.0 | 19.3 | 0.00 | 0.00 | 0.00 | 8 | 1010.5 |
| 20260504011634 | 25 | 210 | 11.3 | 20.9 | 0.00 | 0.00 | 0.00 | 7 | 1010.7 |
| 20260504011129 | 25 | 147 | 11.3 | 22.5 | 0.00 | 0.00 | 0.00 | 7 | 1010.5 |
| 20260504010622 | 26 | 118 | 9.7 | 24.1 | 0.00 | 0.00 | 0.00 | 7 | 1010.5 |
| 20260504010116 | 26 | 130 | 6.4 | 24.1 | 0.00 | 0.00 | 0.00 | 6 | 1010.5 |
| 20260504005611 | 26 | 56 | 8.0 | 29.0 | 0.00 | 0.00 | 0.00 | 6 | 1010.5 |
| 20260504005104 | 26 | 248 | 9.7 | 29.0 | 0.00 | 0.00 | 0.00 | 5 | 1010.3 |
| 20260504004558 | 26 | 212 | 9.7 | 33.8 | 0.00 | 0.00 | 0.00 | 5 | 1010.5 |
| 20260504004053 | 26 | 179 | 12.9 | 33.8 | 0.00 | 0.00 | 0.00 | 5 | 1010.5 |
| 20260504003546 | 26 | 193 | 11.3 | 29.0 | 0.00 | 0.00 | 0.00 | 5 | 1010.5 |
| 20260504003044 | 26 | 191 | 9.7 | 30.6 | 0.00 | 0.00 | 0.00 | 5 | 1010.5 |
| 20260504002535 | 26 | 134 | 9.7 | 30.6 | 0.00 | 0.00 | 0.00 | 5 | 1010.5 |
| 20260504002028 | 25 | 188 | 9.7 | 24.1 | 0.00 | 0.00 | 0.00 | 5 | 1010.5 |
| 20260504001523 | 25 | 239 | 9.7 | 20.9 | 0.00 | 0.00 | 0.00 | 5 | 1010.8 |
| 20260504001016 | 25 | 208 | 8.0 | 29.0 | 0.00 | 0.00 | 0.00 | 6 | 1010.5 |
| 20260504000510 | 25 | 218 | 8.0 | 24.1 | 0.00 | 0.00 | 0.00 | 5 | 1010.5 |
| 20260503235459 | 25 | 182 | 8.0 | 29.0 | 0.00 | 0.00 | 0.00 | 5 | 1010.7 |
| 20260503234953 | 25 | 216 | 6.4 | 29.0 | 0.00 | 0.00 | 0.00 | 5 | 1010.5 |
| 20260503234447 | 24 | 201 | 9.7 | 29.0 | 0.00 | 0.00 | 0.00 | 5 | 1010.8 |
| 20260503233943 | 25 | 193 | 9.7 | 24.1 | 0.00 | 0.00 | 0.00 | 4 | 1010.5 |
| 20260503233441 | 25 | 218 | 11.3 | 24.1 | 0.00 | 0.00 | 0.00 | 4 | 1010.8 |
| 20260503231941 | 26 | 158 | 14.5 | 32.2 | 0.00 | 0.00 | 0.00 | 4 | 1010.7 |
| 20260503231441 | 26 | 193 | 14.5 | 38.6 | 0.00 | 0.00 | 0.00 | 4 | 1010.7 |
| 20260503230944 | 26 | 244 | 14.5 | 38.6 | 0.00 | 0.00 | 0.00 | 4 | 1010.8 |
| 20260503230442 | 26 | 53 | 16.1 | 30.6 | 0.00 | 0.00 | 0.00 | 4 | 1010.9 |
| 20260503225941 | 26 | 129 | 12.9 | 30.6 | 0.00 | 0.00 | 0.00 | 4 | 1011.0 |
| 20260503225443 | 26 | 183 | 11.3 | 33.8 | 0.00 | 0.00 | 0.00 | 3 | 1010.9 |
| 20260503224939 | 26 | 168 | 12.9 | 33.8 | 0.00 | 0.00 | 0.00 | 4 | 1010.8 |
| 20260503224440 | 26 | 137 | 12.9 | 30.6 | 0.00 | 0.00 | 0.00 | 4 | 1010.9 |